Vertical_Velocity
-3 5 9 -3 11 2 6 5 10 -4 -14 -8 2 -4 -4 9 17 5 4 2 -1 -0 -0 3 -0 1 1 0 1 0 0 0 -3 1 -1 1 0 -1 -1 -1 -3 -1 -1
2 7 4 11 -1 3 -4 16 4 -2 -0 -0 2 2 -7 -9 -2 -5 -0 -5 -3 -3 -1 -1 -1 0 1 1 1 1 2 0 -5 -1 1 5 0 -1 -1 -2 -5 -0 -1
-4 -9 -5 -3 -5 -10 -5 3 5 3 -4 -1 6 -3 1 -3 6 0 0 -1 -4 2 -2 7 8 3 -3 1 2 1 -0 -1 -1 -2 -1 1 3 -1 -0 1 -0 -1 2
7 2 1 -1 1 3 2 -4 2 8 2 6 14 0 3 7 2 -1 -5 2 -3 2 3 20 15 9 11 6 -3 -2 -1 2 1 -2 -3 -1 -1 -1 8 -1 -1 -4 0
-1 3 7 7 0 -3 4 -0 4 5 -0 8 9 9 10 8 1 6 12 11 -3 -1 0 -0 2 0 4 -2 -0 2 -2 2 2 -0 -4 -1 -1 -2 -3 9 -2 -3 -0
-2 -3 0 -2 1 4 5 2 3 5 1 4 -3 6 7 3 8 7 10 15 19 11 2 2 -1 1 -2 -0 1 1 -0 1 -1 -0 -1 -1 -4 -1 -6 -7 3 -3 3
2 3 4 1 2 5 4 5 1 1 -2 -4 -2 2 2 8 3 9 11 16 7 6 0 -0 -2 -0 3 -8 5 2 -7 -6 -1 -3 -1 -0 -3 -2 -1 -6 -2 -5 2
3 2 -2 -2 -2 -2 -4 -1 2 3 -1 2 -2 2 -2 -4 4 9 7 26 2 6 0 3 1 -1 1 -4 -3 -0 1 -1 -1 -3 -2 -1 -4 2 -3 0 -4 -3 -3
-1 1 -0 1 -3 -2 -4 -0 -4 -7 -3 -2 -0 -3 -2 -0 5 4 -8 21 22 13 16 -1 2 -1 -1 -0 -0 1 1 1 -0 0 -2 -0 -3 0 -2 0 0 -3 -3
0 -5 -6 -5 -3 -1 -1 -3 -2 -1 -1 -1 1 -5 0 1 5 -3 -1 2 -1 4 2 1 -0 -4 -1 -1 -1 -1 -0 0 -2 2 -2 -1 -1 -1 -1 1 0 -2 -2
-2 -2 -0 0 -1 -3 -5 -2 -2 -4 -4 1 -1 -3 -1 1 -0 3 4 2 10 9 5 -2 6 -4 -4 0 -1 5 0 -1 -2 -2 -0 -0 1 -2 -1 -2 -2 -2 -1
-5 -3 -3 1 2 2 2 -0 0 -1 -2 -4 -1 0 -4 0 5 3 9 -3 3 -1 -3 5 -2 -0 -2 -0 -4 -3 -2 -2 -2 -4 -3 -1 -1 -1 -2 -1 -1 1 -2
5 6 6 0 -0 -2 -1 -4 -4 -5 -7 -6 -5 -5 -4 -2 1 -2 -7 -1 -1 -0 2 2 4 7 -1 1 -0 -2 -2 -3 -3 -3 -2 0 -1 -1 -0 0 2 -1 -1
-5 -2 -1 1 -3 -2 -3 -3 -5 -7 -6 -2 -5 -4 -2 6 -2 1 2 3 1 -1 -1 -1 -7 -5 -8 -4 -3 -3 -3 -1 -3 0 -3 -1 -2 -2 -2 0 -1 0 -0
2 4 1 0 -5 -3 -5 -3 -2 -4 -7 -5 -2 -4 -3 1 0 1 2 0 -0 2 -2 -0 -4 -1 -0 -2 -1 -2 -3 -2 -4 -2 -1 -1 -0 -1 2 2 2 3 2
3 3 0 -0 1 -3 -1 -4 -1 2 -2 -0 -2 -3 -1 -2 -3 -2 -0 1 -1 -3 -1 -4 -3 -2 -2 -1 -2 -1 1 4 -0 -0 0 -2 -1 1 0 2 1 1 -1
-3 0 3 1 0 -1 -3 2 -1 -1 -1 -1 -2 -0 -2 -2 -3 -2 -2 -3 -3 -1 -0 -1 -1 -3 -4 -1 -4 -1 -1 -0 -1 0 -0 -1 -1 -1 2 -0 0 -0 1
3 7 6 3 0 -1 1 -3 -2 -0 -1 1 -1 0 -1 -3 -1 -0 -1 -1 -0 -2 -2 0 -1 -1 -1 -2 0 0 0 -1 -0 0 1 1 1 0 0 1 0 -0 -0
-1 0 0 4 4 6 -0 -3 -4 -1 1 4 0 -0 -3 -3 -2 -1 -0 -0 -2 1 2 -0 -0 -1 -1 0 -1 -1 -2 -1 -1 -1 0 -0 -0 1 1 -1 1 2 4
-2 -1 -3 0 4 3 5 2 -0 -1 2 1 -2 -4 -3 1 4 -3 -2 -2 -3 -1 -3 -2 -2 0 -2 -3 -2 -1 -1 -0 -1 -1 -2 -2 -1 -1 -1 0 -2 -2 0
1 -0 1 3 -2 -0 -1 4 -2 5 -2 -2 -2 3 4 2 -2 2 -1 -1 -1 -2 -2 -0 1 -1 1 -1 -2 -1 0 -2 -1 -2 -1 -2 -1 1 -0 1 2 1 3
-3 -1 1 0 2 -2 -2 2 1 -9 -3 -6 1 4 1 1 -0 -1 -1 0 0 -1 -2 -1 -2 -2 1 -2 -2 -0 -1 0 -1 -1 0 -0 0 0 1 -1 4 2 1
-3 -0 1 -0 1 -2 1 4 4 -5 -2 2 1 0 -0 0 1 0 0 -2 -1 -1 -1 0 -1 -2 -0 -1 -1 -1 -1 -1 -2 -1 -1 1 -0 0 -0 -0 0 -1 -1
-3 0 1 2 3 1 -1 2 2 0 -1 -1 -1 -1 -0 -1 -1 -1 1 1 -2 -2 -2 2 -1 0 -1 1 -1 -2 -0 -0 1 0 -1 -0 0 -1 0 -1 -1 0 3
-1 3 3 1 0 3 1 1 1 1 0 -1 1 4 -2 -2 -3 -1 -2 2 -1 2 0 1 0 1 -0 2 -2 -1 0 1 1 -1 -2 -1 2 -0 0 -1 -1 1 1
3 -1 -2 4 0 2 3 1 1 2 2 2 0 -1 -4 10 5 -1 -0 -2 -2 0 -1 -0 -1 0 -2 0 -1 1 0 1 3 -1 -1 1 2 0 3 2 2 3 3
Height
5760 5764 5768 5773 5777 5781 5786 5788 5789 5791 5794 5800 5802 5809 5812 5814 5817 5821 5824 5824 5825 5827 5829 5829 5830 5830 5831 5831 5831 5831 5831 5831 5830 5830 5830 5829 5827 5826 5824 5822 5820 5818 5815
5756 5761 5764 5769 5771 5775 5779 5782 5785 5788 5792 5794 5796 5802 5807 5808 5808 5815 5819 5819 5818 5819 5820 5820 5820 5821 5821 5822 5823 5823 5822 5822 5822 5823 5822 5823 5821 5818 5817 5815 5812 5810 5807
5746 5753 5760 5763 5767 5772 5777 5780 5784 5785 5788 5791 5792 5794 5798 5804 5803 5808 5810 5812 5812 5811 5812 5809 5807 5806 5809 5811 5812 5813 5813 5815 5814 5813 5813 5814 5813 5812 5810 5808 5804 5802 5799
5741 5745 5751 5757 5761 5764 5766 5773 5778 5781 5783 5784 5785 5788 5792 5794 5796 5797 5800 5802 5804 5803 5804 5805 5802 5802 5801 5800 5802 5804 5805 5805 5805 5805 5803 5803 5803 5802 5803 5799 5796 5792 5790
5737 5740 5743 5749 5754 5760 5764 5767 5769 5772 5776 5780 5779 5781 5783 5785 5787 5788 5789 5791 5793 5792 5795 5796 5793 5793 5792 5792 5795 5795 5797 5796 5797 5796 5795 5794 5792 5790 5789 5788 5785 5783 5780
5733 5736 5737 5741 5748 5753 5757 5761 5764 5766 5767 5770 5772 5774 5775 5776 5778 5780 5783 5781 5780 5781 5783 5784 5783 5783 5783 5785 5787 5788 5788 5788 5787 5786 5786 5785 5783 5781 5779 5777 5773 5770 5769
5727 5730 5731 5735 5740 5744 5748 5752 5755 5757 5758 5760 5764 5766 5766 5767 5768 5771 5773 5773 5771 5771 5773 5774 5773 5774 5773 5774 5776 5777 5778 5777 5777 5777 5775 5774 5773 5770 5767 5765 5763 5760 5758
5721 5724 5727 5730 5733 5736 5740 5743 5745 5747 5749 5751 5752 5754 5756 5758 5759 5760 5762 5764 5761 5760 5762 5763 5762 5763 5764 5765 5766 5766 5767 5766 5766 5765 5764 5762 5761 5758 5756 5754 5752 5750 5748
5713 5715 5720 5724 5727 5730 5733 5735 5737 5739 5740 5741 5743 5744 5745 5747 5748 5750 5751 5749 5750 5749 5751 5752 5752 5753 5753 5753 5755 5755 5755 5755 5753 5753 5751 5751 5748 5747 5745 5743 5741 5739 5738
5708 5711 5714 5717 5721 5723 5726 5727 5727 5729 5730 5731 5731 5732 5733 5734 5737 5738 5738 5739 5739 5739 5739 5740 5741 5741 5742 5742 5742 5742 5742 5742 5741 5740 5739 5738 5737 5735 5733 5732 5731 5728 5726
5702 5705 5708 5710 5713 5715 5716 5718 5719 5720 5719 5718 5719 5720 5720 5721 5723 5725 5726 5727 5725 5725 5726 5728 5729 5729 5730 5730 5731 5730 5731 5731 5730 5729 5727 5727 5725 5723 5722 5721 5719 5718 5715
5694 5696 5698 5700 5702 5704 5706 5707 5708 5709 5708 5707 5707 5708 5708 5709 5710 5712 5713 5713 5714 5713 5715 5715 5717 5716 5716 5718 5718 5718 5718 5718 5717 5717 5715 5714 5712 5711 5710 5708 5707 5706 5704
5687 5689 5691 5692 5693 5694 5696 5697 5697 5697 5696 5695 5696 5696 5697 5698 5700 5700 5699 5702 5702 5703 5703 5703 5705 5704 5703 5704 5704 5704 5704 5704 5702 5702 5702 5700 5698 5697 5696 5694 5694 5693 5691
5678 5680 5681 5682 5683 5684 5685 5686 5686 5686 5686 5686 5686 5686 5685 5687 5686 5688 5690 5691 5691 5691 5692 5690 5691 5693 5692 5692 5691 5690 5690 5689 5688 5689 5688 5688 5686 5684 5682 5681 5681 5679 5678
5669 5669 5671 5672 5673 5674 5675 5676 5676 5677 5678 5678 5678 5677 5677 5677 5677 5678 5680 5680 5681 5680 5681 5682 5682 5679 5680 5680 5679 5680 5679 5678 5676 5675 5674 5673 5672 5670 5668 5667 5666 5666 5665
5660 5660 5661 5662 5663 5663 5664 5665 5667 5668 5669 5670 5670 5670 5669 5669 5669 5669 5670 5670 5670 5671 5671 5671 5672 5671 5670 5670 5670 5667 5667 5665 5664 5663 5662 5661 5659 5657 5656 5655 5655 5654 5654
5649 5649 5650 5651 5651 5651 5653 5655 5656 5658 5659 5660 5660 5661 5661 5661 5661 5661 5662 5662 5662 5662 5663 5662 5661 5661 5661 5660 5658 5657 5656 5654 5653 5651 5650 5649 5647 5645 5644 5644 5645 5645 5644
5638 5638 5639 5640 5641 5641 5641 5642 5645 5647 5648 5649 5650 5651 5651 5652 5652 5652 5653 5653 5653 5653 5653 5653 5652 5651 5650 5649 5648 5646 5645 5643 5641 5640 5639 5638 5636 5634 5633 5634 5634 5634 5635
5626 5627 5627 5627 5629 5630 5630 5632 5634 5635 5636 5637 5638 5639 5640 5641 5642 5642 5643 5643 5644 5644 5643 5642 5642 5641 5640 5639 5637 5636 5634 5632 5631 5630 5628 5627 5626 5625 5625 5624 5624 5624 5625
5613 5613 5614 5615 5616 5617 5619 5620 5622 5623 5624 5624 5626 5627 5628 5629 5630 5632 5632 5633 5633 5633 5633 5633 5633 5632 5631 5630 5628 5627 5625 5623 5622 5620 5619 5618 5617 5616 5616 5616 5615 5615 5616
5597 5597 5599 5601 5602 5603 5605 5607 5608 5610 5610 5611 5613 5614 5616 5618 5619 5620 5620 5621 5622 5623 5623 5624 5623 5622 5622 5620 5620 5618 5617 5616 5614 5612 5611 5610 5609 5608 5608 5608 5608 5608 5608
5581 5582 5583 5585 5587 5589 5592 5594 5595 5595 5598 5599 5601 5602 5603 5604 5606 5608 5609 5610 5611 5611 5612 5613 5613 5612 5613 5611 5611 5610 5609 5607 5605 5605 5604 5603 5602 5601 5601 5601 5600 5601 5601
5566 5567 5569 5570 5573 5575 5578 5580 5581 5584 5585 5588 5589 5591 5592 5593 5595 5597 5598 5598 5599 5600 5601 5601 5603 5603 5603 5603 5603 5602 5600 5599 5598 5598 5597 5596 5595 5594 5594 5593 5593 5594 5593
5551 5551 5554 5557 5559 5562 5564 5568 5570 5572 5573 5576 5578 5580 5582 5583 5585 5586 5587 5588 5588 5590 5590 5591 5592 5593 5593 5593 5594 5593 5592 5592 5591 5590 5589 5589 5588 5587 5587 5587 5587 5587 5587
5534 5538 5540 5542 5546 5549 5552 5555 5558 5561 5563 5565 5567 5570 5572 5573 5574 5576 5577 5578 5578 5579 5579 5580 5582 5583 5584 5585 5585 5584 5584 5584 5584 5583 5582 5581 5581 5581 5580 5580 5580 5580 5580
5520 5526 5529 5531 5534 5538 5541 5544 5547 5550 5552 5555 5557 5559 5561 5564 5564 5566 5567 5567 5568 5569 5570 5571 5572 5574 5575 5575 5575 5576 5576 5576 5575 5575 5574 5573 5573 5573 5573 5573 5573 5572 5572